Regional Weather Roundup
Issued by NWS

Home | Current Version | Previous Version | Text Only | Print | Product List | Glossary On
Versions: 1 2 3 4 5 6 7 8 9 10 11 12 13 14 15 16 17 18 19 20 21 22 23 24 25 26 27 28 29 30 31 32 33 34 35 36 37 38 39 40 41 42 43 44 45 46 47 48 49 50
000
ASUS43 KTOP 262008
RWRKS

WEATHER ROUNDUP FOR KANSAS
NATIONAL WEATHER SERVICE GOODLAND KS
300 PM CDT MON JUN 26 2017

NOTE:  "FAIR" INDICATES FEW OR NO CLOUDS BELOW 12,000 FEET WITH NO
SIGNIFICANT WEATHER AND/OR OBSTRUCTIONS TO VISIBILITY.

KSZ001>006-013>018-027>032-041>047-262100-
NORTHWEST KANSAS

CITY           SKY/WX    TMP DP  RH WIND       PRES   REMARKS
GOODLAND       SUNNY     83  54  36 CALM      30.14F
HAYS           PTSUNNY   80  64  58 VRB7      30.11F
HILL CITY      MOSUNNY   81  62  52 E6        30.12F
RUSSELL        PTSUNNY   81  61  50 S6        30.09F
$$

KSZ061>065-074>080-084>089-262100-
SOUTHWEST KANSAS

CITY           SKY/WX    TMP DP  RH WIND       PRES   REMARKS
DODGE CITY     SUNNY     81  63  54 SE8       30.13F
ELKHART          N/A     84  54  35 S10         N/A
GARDEN CITY    SUNNY     82  60  47 VRB7      30.13F
GREAT BEND     MOSUNNY   83  61  47 S7        30.10F
LIBERAL        PTSUNNY   86  60  41 VRB7      30.12F
PRATT          PTSUNNY   81  57  43 W3        30.10F
$$

KSZ066>073-081>083-090>101-262100-
SOUTHEAST KANSAS

CITY           SKY/WX    TMP DP  RH WIND       PRES   REMARKS
CHANUTE        CLOUDY    83  59  44 W12       30.11F
COFFEYVILLE    MOSUNNY   87  63  44 W10G16    30.10F
HUTCHINSON     PTSUNNY   89  58  34 S7        30.09F
MEDICINE LODGE   N/A     86  59  39 VRB5      30.08F
NEWTON         MOSUNNY   87  58  37 W8        30.10F
PARSONS        PTSUNNY   85  63  47 S8        30.12F
WICHITA INTL   MOSUNNY   86  60  41 SW9       30.08F
WICHITA JABRA  PTSUNNY   85  60  42 W10       30.09F
WICHITA MCCONL MOSUNNY   84  58  39 SW7       30.09F
WINFIELD       PTSUNNY   83  59  44 SW8       30.10F
$$

KSZ007>012-019>026-033>040-048>060-102>105-262100-
NORTHEAST KANSAS

CITY           SKY/WX    TMP DP  RH WIND       PRES   REMARKS
CONCORDIA      PTSUNNY   80  58  46 CALM      30.09F
EMPORIA        PTSUNNY   78  61  55 NE12      30.11F
LAWRENCE       SUNNY     71  53  52 E14G22    30.16F
MANHATTAN      SUNNY     80  60  50 E13       30.11F
MARYSVILLE     MOSUNNY   75  59  57 CALM      30.12F
OLATHE IND     MOSUNNY   70  54  56 E14G21    30.18F
OLATHE EXE     PTSUNNY   66  53  63 E13       30.17F
SALINA         SUNNY     86  58  38 CALM      30.08F
TOPEKA BILLARD SUNNY     74  58  57 E14       30.14F
TOPEKA FORBES  SUNNY     74  57  55 SE15G21   30.14F
$$



USA.gov is the U.S. government's official web portal to all federal, state and local government web resources and services.